Bozeman, MT

9:56 AM MDT on April 26, 2017 (GMT -0600)
Gallatin

Weather History for KBZN - April, 2013

Change the Weather History Date:

Friday, April 19, 2013

  Actual Average Record
Temperature  
Mean Temperature 39 °F 46 °F  
Max Temperature 55 °F 60 °F 86 °F (1962)
Min Temperature 22 °F 32 °F 2 °F (1941)
Degree Days  
Heating Degree Days 26 19  
Month to date heating degree days 528 406  
Since 1 July heating degree days 7210 6870  
Cooling Degree Days 0 0  
Month to date cooling degree days 0 0  
Year to date cooling degree days 0 0  
Moisture  
Dew Point 28 °F    
Average Humidity 64    
Maximum Humidity 92    
Minimum Humidity 35    
Precipitation  
Precipitation 0.10 in 0.06 in 0.34 in (2004)
Month to date precipitation 0.59 0.96  
Year to date precipitation 1.10 2.81  
Snow  
Snow 0.00 in 0.20 in 2.00 in (1987)
Month to date snowfall 2.8 5.4  
Since 1 July snowfall 22.1 35.4  
Snow Depth 0.00 in    
Sea Level Pressure  
Sea Level Pressure 29.99 in    
Wind  
Wind Speed 7 mph (South)    
Max Wind Speed 26 mph    
Max Gust Speed 32 mph    
Visibility 10 miles    
Events Rain    
T = Trace of Precipitation, MM = Missing Value Source: NWS Daily Summary

Daily Weather History Graph

Daily Weather History Graph

Search for Another Location

Airport or City:

Trip Planner

Search our weather history database for the weather conditions in past years. The results will help you decide how hot, cold, wet, or windy it might be!

Date:

Astronomy

Apr. 19, 2013 Rise Set
Actual Time 6:31 AM MDT 8:16 PM MDT
Civil Twilight 5:59 AM MDT 8:48 PM MDT
Nautical Twilight 5:21 AM MDT 9:27 PM MDT
Astronomical Twilight 4:39 AM MDT 10:09 PM MDT
Moon 1:46 PM MDT (4/19) 3:08 AM MDT (4/19)
Length of Visible Light 14h 49m
Length of Day
13h 45m
Waxing Gibbous, 62% of the Moon is Illuminated
Apr 19
Waxing Gibbous
Apr 25
Full
May 2
Last Quarter
May 9
New
May 17
First Quarter

Hourly Weather History & Observations

Time (MDT) Temp. Windchill Dew Point Humidity Pressure Visibility Wind Dir Wind Speed Gust Speed Precip Events Conditions
12:56 AM 21.9 °F 17.2 °F 17.1 °F 82% 30.21 in 10.0 mi SE 3.5 mph - N/A   Clear
1:56 AM 28.9 °F 23.9 °F 19.9 °F 69% 30.18 in 10.0 mi South 4.6 mph - N/A   Clear
2:56 AM 26.1 °F 19.4 °F 19.0 °F 75% 30.17 in 10.0 mi South 5.8 mph - N/A   Clear
3:56 AM 23.0 °F 14.7 °F 18.0 °F 81% 30.17 in 10.0 mi SE 6.9 mph - N/A   Clear
4:56 AM 27.0 °F 19.5 °F 19.9 °F 75% 30.15 in 10.0 mi SSE 6.9 mph - N/A   Mostly Cloudy
5:56 AM 28.0 °F 20.8 °F 21.9 °F 78% 30.14 in 10.0 mi SSE 6.9 mph - N/A   Mostly Cloudy
6:56 AM 32.0 °F 24.2 °F 21.0 °F 64% 30.10 in 10.0 mi SSE 9.2 mph - N/A   Partly Cloudy
7:56 AM 34.0 °F 28.8 °F 25.0 °F 70% 30.09 in 10.0 mi ESE 5.8 mph - N/A   Overcast
8:56 AM 37.4 °F 33.8 °F 24.8 °F 60% 30.03 in 10.0 mi ESE 4.6 mph - N/A   Overcast
9:56 AM 42.1 °F 40.2 °F 27.0 °F 55% 30.04 in 10.0 mi Variable 3.5 mph - N/A   Overcast
10:56 AM 44.1 °F 41.5 °F 27.0 °F 51% 30.02 in 10.0 mi NE 4.6 mph - N/A   Overcast
11:56 AM 46.0 °F 43.9 °F 27.0 °F 47% 30.02 in 10.0 mi SSE 4.6 mph - N/A   Mostly Cloudy
12:56 PM 50.0 °F - 27.0 °F 41% 29.98 in 10.0 mi Variable 3.5 mph - N/A   Overcast
1:43 PM 53.6 °F - 26.6 °F 35% 29.89 in 10.0 mi SW 13.8 mph 19.6 mph N/A   Overcast
1:56 PM 53.1 °F - 26.1 °F 35% 29.91 in 10.0 mi West 10.4 mph 24.2 mph N/A   Overcast
2:56 PM 52.0 °F - 27.0 °F 38% 29.90 in 10.0 mi SW 12.7 mph 23.0 mph N/A   Overcast
3:11 PM 53.6 °F - 26.6 °F 35% 29.85 in 10.0 mi WSW 18.4 mph 25.3 mph N/A   Overcast
3:56 PM 54.0 °F - 28.9 °F 38% 29.87 in 10.0 mi WSW 17.3 mph 31.1 mph N/A   Overcast
4:56 PM 52.0 °F - 30.0 °F 43% 29.86 in 10.0 mi WSW 23.0 mph 29.9 mph N/A   Overcast
5:56 PM 48.9 °F - 32.0 °F 52% 29.88 in 10.0 mi West 18.4 mph 25.3 mph N/A   Overcast
6:56 PM 45.0 °F 41.8 °F 36.0 °F 71% 29.91 in 10.0 mi WSW 5.8 mph - 0.03 in Rain Light Rain
7:43 PM 42.8 °F 35.4 °F 37.4 °F 81% 29.87 in 4.0 mi West 15.0 mph 23.0 mph 0.04 in Rain Rain
7:56 PM 42.1 °F 36.1 °F 37.0 °F 82% 29.92 in 7.0 mi SW 10.4 mph - 0.05 in Rain Light Rain
8:56 PM 42.1 °F - 36.0 °F 79% 29.91 in 10.0 mi Calm Calm - 0.01 in   Overcast
9:56 PM 39.9 °F 37.8 °F 37.0 °F 89% 29.92 in 10.0 mi ENE 3.5 mph - N/A   Overcast
10:56 PM 42.1 °F - 36.0 °F 79% 29.91 in 10.0 mi Calm Calm - 0.00 in   Overcast
11:56 PM 39.0 °F 36.8 °F 36.0 °F 89% 29.91 in 10.0 mi South 3.5 mph - 0.01 in   Overcast